User: anonymous   Login
Location: Unspecified
(0.0000°N, 0.0000°E)
Time: 03:31:23
(UTC+00:00)
Language:

FORMOSAT 3F - Orbit

View from above orbital plane
View from above orbital plane
View from above satellite
View from above satellite

Ground track
Ground track

The orbit data is extracted from the following two-line orbital elements,

1 29052U 06011F   19053.95492280 +.00000065 +00000-0 +41471-4 0  9995
2 29052 072.0335 066.7713 0038309 121.1639 239.3263 14.28823643671065
Epoch (UTC): 22 February 2019 22:55:05
Eccentricity: 0.0038309
inclination: 72.0335°
perigee height: 768 km
apogee height: 823 km
right ascension of ascending node: 66.7713°
argument of perigee: 121.1639°
revolutions per day: 14.28823643
mean anomaly at epoch: 239.3263°
orbit number at epoch: 67106

The dashed part of the orbit path shows where the satellite is in the earth's shadow,  

DLR